Time,TemperatureF,DewpointF,PressureIn,WindDirection,WindDirectionDegrees,WindSpeedMPH,WindSpeedGustMPH,Humidity,HourlyPrecipIn,Conditions,Clouds,dailyrainin,SolarRadiationWatts/m^2,SoftwareType,DateUTC
2013-01-26 00:12:00,10.0,2.0,-100.00,WNW,283,8.0,15.0,69,0.00,,,0.02,0.000000,,2013-01-26 06:12:00,
2013-01-26 00:21:00,10.0,2.0,-100.00,WNW,283,8.0,15.0,69,0.00,,,0.02,0.000000,,2013-01-26 06:21:00,
2013-01-26 00:32:00,10.0,2.0,-100.00,WNW,283,8.0,15.0,69,0.00,,,0.02,0.000000,,2013-01-26 06:32:00,
2013-01-26 00:41:00,10.0,2.0,-100.00,WNW,283,8.0,15.0,69,0.00,,,0.02,0.000000,,2013-01-26 06:41:00,
2013-01-26 01:12:00,8.0,1.0,-100.00,WNW,294,7.0,12.0,73,0.00,,,0.02,0.000000,,2013-01-26 07:12:00,
2013-01-26 01:21:00,8.0,1.0,-100.00,WNW,294,7.0,12.0,73,0.00,,,0.02,0.000000,,2013-01-26 07:21:00,
2013-01-26 01:33:00,8.0,1.0,-100.00,WNW,294,7.0,12.0,73,0.00,,,0.02,0.000000,,2013-01-26 07:33:00,
2013-01-26 01:41:00,8.0,1.0,-100.00,WNW,294,7.0,12.0,73,0.00,,,0.02,0.000000,,2013-01-26 07:41:00,
2013-01-26 02:11:00,6.0,0.0,-100.00,WNW,287,6.0,9.0,75,0.00,,,0.02,0.000000,,2013-01-26 08:11:00,
2013-01-26 02:21:00,6.0,0.0,-100.00,WNW,287,6.0,9.0,75,0.00,,,0.02,0.000000,,2013-01-26 08:21:00,
2013-01-26 02:32:00,6.0,0.0,-100.00,WNW,287,6.0,9.0,75,0.00,,,0.02,0.000000,,2013-01-26 08:32:00,
2013-01-26 02:42:00,6.0,0.0,-100.00,WNW,287,6.0,9.0,75,0.00,,,0.02,0.000000,,2013-01-26 08:42:00,
2013-01-26 03:11:00,5.0,-1.0,-100.00,WNW,297,6.0,8.0,77,0.00,,,0.02,0.000000,,2013-01-26 09:11:00,
2013-01-26 03:22:00,5.0,-1.0,-100.00,WNW,297,6.0,8.0,77,0.00,,,0.02,0.000000,,2013-01-26 09:22:00,
2013-01-26 03:32:00,5.0,-1.0,-100.00,WNW,297,6.0,8.0,77,0.00,,,0.02,0.000000,,2013-01-26 09:32:00,
2013-01-26 03:42:00,5.0,-1.0,-100.00,WNW,297,6.0,8.0,77,0.00,,,0.02,0.000000,,2013-01-26 09:42:00,
2013-01-26 04:12:00,3.0,-2.0,-100.00,WNW,293,5.0,8.0,78,0.00,,,0.01,0.000000,,2013-01-26 10:12:00,
2013-01-26 04:21:00,3.0,-2.0,-100.00,WNW,293,5.0,8.0,78,0.00,,,0.01,0.000000,,2013-01-26 10:21:00,
2013-01-26 04:32:00,3.0,-2.0,-100.00,WNW,293,5.0,8.0,78,0.00,,,0.01,0.000000,,2013-01-26 10:32:00,
2013-01-26 04:42:00,3.0,-2.0,-100.00,WNW,293,5.0,8.0,78,0.00,,,0.01,0.000000,,2013-01-26 10:42:00,
2013-01-26 05:12:00,3.0,-2.0,-100.00,WNW,295,6.0,9.0,78,0.00,,,0.00,0.000000,,2013-01-26 11:12:00,
2013-01-26 05:22:00,3.0,-2.0,-100.00,WNW,295,6.0,9.0,78,0.00,,,0.00,0.000000,,2013-01-26 11:22:00,
2013-01-26 05:32:00,3.0,-2.0,-100.00,WNW,295,6.0,9.0,78,0.00,,,0.00,0.000000,,2013-01-26 11:32:00,
2013-01-26 05:42:00,3.0,-2.0,-100.00,WNW,295,6.0,9.0,78,0.00,,,0.00,0.000000,,2013-01-26 11:42:00,
2013-01-26 06:12:00,2.0,-3.0,-100.00,NW,316,3.0,8.0,79,0.00,,,0.00,0.000000,,2013-01-26 12:12:00,
2013-01-26 06:22:00,2.0,-3.0,-100.00,NW,316,3.0,8.0,79,0.00,,,0.00,0.000000,,2013-01-26 12:22:00,
2013-01-26 06:33:00,2.0,-3.0,-100.00,NW,316,3.0,8.0,79,0.00,,,0.00,0.000000,,2013-01-26 12:33:00,
2013-01-26 06:42:00,2.0,-3.0,-100.00,NW,316,3.0,8.0,79,0.00,,,0.00,0.000000,,2013-01-26 12:42:00,
2013-01-26 07:12:00,0.0,-5.0,-100.00,SW,235,3.0,5.0,79,0.00,,,0.00,0.000000,,2013-01-26 13:12:00,
2013-01-26 07:22:00,0.0,-5.0,-100.00,SW,235,3.0,5.0,79,0.00,,,0.00,0.000000,,2013-01-26 13:22:00,
2013-01-26 07:32:00,0.0,-5.0,-100.00,SW,235,3.0,5.0,79,0.00,,,0.00,0.000000,,2013-01-26 13:32:00,
2013-01-26 07:42:00,0.0,-5.0,-100.00,SW,235,3.0,5.0,79,0.00,,,0.00,0.000000,,2013-01-26 13:42:00,
2013-01-26 08:12:00,1.0,-4.0,-100.00,WSW,242,4.0,6.0,79,0.00,,,-99.99,5.000000,,2013-01-26 14:12:00,
2013-01-26 08:22:00,1.0,-4.0,-100.00,WSW,242,4.0,6.0,79,0.00,,,-99.99,5.000000,,2013-01-26 14:22:00,
2013-01-26 08:32:00,1.0,-4.0,-100.00,WSW,242,4.0,6.0,79,0.00,,,-99.99,5.000000,,2013-01-26 14:32:00,
2013-01-26 08:43:00,1.0,-4.0,-100.00,WSW,242,4.0,6.0,79,0.00,,,-99.99,5.000000,,2013-01-26 14:43:00,
2013-01-26 09:12:00,5.0,-1.0,-100.00,West,262,6.0,8.0,74,0.00,,,0.00,63.000000,,2013-01-26 15:12:00,
2013-01-26 09:22:00,5.0,-1.0,-100.00,West,262,6.0,8.0,74,0.00,,,0.00,63.000000,,2013-01-26 15:22:00,
2013-01-26 09:32:00,5.0,-1.0,-100.00,West,262,6.0,8.0,74,0.00,,,0.00,63.000000,,2013-01-26 15:32:00,
2013-01-26 09:43:00,5.0,-1.0,-100.00,West,262,6.0,8.0,74,0.00,,,0.00,63.000000,,2013-01-26 15:43:00,
2013-01-26 10:12:00,12.0,2.0,-100.00,NNW,328,4.0,8.0,62,0.00,,,0.00,217.000000,,2013-01-26 16:12:00,
2013-01-26 10:22:00,12.0,2.0,-100.00,NNW,328,4.0,8.0,62,0.00,,,0.00,217.000000,,2013-01-26 16:22:00,
2013-01-26 10:33:00,12.0,2.0,-100.00,NNW,328,4.0,8.0,62,0.00,,,0.00,217.000000,,2013-01-26 16:33:00,
2013-01-26 10:42:00,12.0,2.0,-100.00,NNW,328,4.0,8.0,62,0.00,,,0.00,217.000000,,2013-01-26 16:42:00,
2013-01-26 11:13:00,18.0,1.0,-100.00,ENE,62,3.0,5.0,47,0.00,,,0.00,369.000000,,2013-01-26 17:13:00,
2013-01-26 11:22:00,18.0,1.0,-100.00,ENE,62,3.0,5.0,47,0.00,,,0.00,369.000000,,2013-01-26 17:22:00,
2013-01-26 11:33:00,18.0,1.0,-100.00,ENE,62,3.0,5.0,47,0.00,,,0.00,369.000000,,2013-01-26 17:33:00,
2013-01-26 11:42:00,18.0,1.0,-100.00,ENE,62,3.0,5.0,47,0.00,,,0.00,369.000000,,2013-01-26 17:42:00,
2013-01-26 12:12:00,22.0,3.0,-100.00,WNW,298,1.0,5.0,43,0.00,,,0.00,422.000000,,2013-01-26 18:12:00,
2013-01-26 12:22:00,22.0,3.0,-100.00,WNW,298,1.0,5.0,43,0.00,,,0.00,422.000000,,2013-01-26 18:22:00,
2013-01-26 12:33:00,22.0,3.0,-100.00,WNW,298,1.0,5.0,43,0.00,,,0.00,422.000000,,2013-01-26 18:33:00,
2013-01-26 12:42:00,22.0,3.0,-100.00,WNW,298,1.0,5.0,43,0.00,,,0.00,422.000000,,2013-01-26 18:42:00,
2013-01-26 13:12:00,25.0,5.0,-100.00,ESE,114,4.0,9.0,42,0.00,,,0.00,511.000000,,2013-01-26 19:12:00,
2013-01-26 13:22:00,25.0,5.0,-100.00,ESE,114,4.0,9.0,42,0.00,,,0.00,511.000000,,2013-01-26 19:22:00,
2013-01-26 13:32:00,25.0,5.0,-100.00,ESE,114,4.0,9.0,42,0.00,,,0.00,511.000000,,2013-01-26 19:32:00,
2013-01-26 13:42:00,25.0,5.0,-100.00,ESE,114,4.0,9.0,42,0.00,,,0.00,511.000000,,2013-01-26 19:42:00,
2013-01-26 14:11:00,26.0,7.0,-100.00,SSE,164,6.0,10.0,43,0.00,,,0.00,358.000000,,2013-01-26 20:11:00,
2013-01-26 14:22:00,26.0,7.0,-100.00,SSE,164,6.0,10.0,43,0.00,,,0.00,358.000000,,2013-01-26 20:22:00,
2013-01-26 14:32:00,26.0,7.0,-100.00,SSE,164,6.0,10.0,43,0.00,,,0.00,358.000000,,2013-01-26 20:32:00,
2013-01-26 14:42:00,26.0,7.0,-100.00,SSE,164,6.0,10.0,43,0.00,,,0.00,358.000000,,2013-01-26 20:42:00,
2013-01-26 15:12:00,23.0,5.0,-100.00,SE,143,5.0,10.0,46,0.00,,,0.00,252.000000,,2013-01-26 21:12:00,
2013-01-26 15:22:00,23.0,5.0,-100.00,SE,143,5.0,10.0,46,0.00,,,0.00,252.000000,,2013-01-26 21:22:00,
2013-01-26 15:32:00,23.0,5.0,-100.00,SE,143,5.0,10.0,46,0.00,,,0.00,252.000000,,2013-01-26 21:32:00,
2013-01-26 15:42:00,23.0,5.0,-100.00,SE,143,5.0,10.0,46,0.00,,,0.00,252.000000,,2013-01-26 21:42:00,
2013-01-26 16:12:00,24.0,5.0,-100.00,SSE,148,5.0,9.0,44,0.00,,,0.00,217.000000,,2013-01-26 22:12:00,
2013-01-26 16:22:00,24.0,5.0,-100.00,SSE,148,5.0,9.0,44,0.00,,,0.00,217.000000,,2013-01-26 22:22:00,
2013-01-26 16:32:00,24.0,5.0,-100.00,SSE,148,5.0,9.0,44,0.00,,,0.00,217.000000,,2013-01-26 22:32:00,
2013-01-26 16:42:00,24.0,5.0,-100.00,SSE,148,5.0,9.0,44,0.00,,,0.00,217.000000,,2013-01-26 22:42:00,
2013-01-26 17:12:00,22.0,6.0,-100.00,SSE,157,2.0,10.0,49,0.00,,,0.00,38.000000,,2013-01-26 23:12:00,
2013-01-26 17:22:00,22.0,6.0,-100.00,SSE,157,2.0,10.0,49,0.00,,,0.00,38.000000,,2013-01-26 23:22:00,
2013-01-26 17:32:00,22.0,6.0,-100.00,SSE,157,2.0,10.0,49,0.00,,,0.00,38.000000,,2013-01-26 23:32:00,
2013-01-26 17:42:00,22.0,6.0,-100.00,SSE,157,2.0,10.0,49,0.00,,,0.00,38.000000,,2013-01-26 23:42:00,
2013-01-26 18:11:00,22.0,6.0,-100.00,South,187,5.0,8.0,50,0.00,,,0.00,2.000000,,2013-01-27 00:11:00,
2013-01-26 18:21:00,22.0,6.0,-100.00,South,187,5.0,8.0,50,0.00,,,0.00,2.000000,,2013-01-27 00:21:00,
2013-01-26 18:32:00,22.0,6.0,-100.00,South,187,5.0,8.0,50,0.00,,,0.00,2.000000,,2013-01-27 00:32:00,
2013-01-26 18:42:00,22.0,6.0,-100.00,South,187,5.0,8.0,50,0.00,,,0.00,2.000000,,2013-01-27 00:42:00,
2013-01-26 19:11:00,21.0,6.0,-100.00,SE,135,4.0,9.0,51,0.00,,,0.00,0.000000,,2013-01-27 01:11:00,
2013-01-26 19:22:00,21.0,6.0,-100.00,SE,135,4.0,9.0,51,0.00,,,0.00,0.000000,,2013-01-27 01:22:00,
2013-01-26 19:32:00,21.0,6.0,-100.00,SE,135,4.0,9.0,51,0.00,,,0.00,0.000000,,2013-01-27 01:32:00,
2013-01-26 19:42:00,21.0,6.0,-100.00,SE,135,4.0,9.0,51,0.00,,,0.00,0.000000,,2013-01-27 01:42:00,
2013-01-26 20:12:00,22.0,8.0,-100.00,SE,134,5.0,11.0,53,0.00,,,0.00,0.000000,,2013-01-27 02:12:00,
2013-01-26 20:22:00,22.0,8.0,-100.00,SE,134,5.0,11.0,53,0.00,,,0.00,0.000000,,2013-01-27 02:22:00,
2013-01-26 20:32:00,22.0,8.0,-100.00,SE,134,5.0,11.0,53,0.00,,,0.00,0.000000,,2013-01-27 02:32:00,
2013-01-26 20:42:00,22.0,8.0,-100.00,SE,134,5.0,11.0,53,0.00,,,0.00,0.000000,,2013-01-27 02:42:00,
2013-01-26 21:11:00,21.0,7.0,-100.00,SE,145,5.0,10.0,53,0.00,,,0.00,0.000000,,2013-01-27 03:11:00,
2013-01-26 21:21:00,21.0,7.0,-100.00,SE,145,5.0,10.0,53,0.00,,,0.00,0.000000,,2013-01-27 03:21:00,
2013-01-26 21:32:00,21.0,7.0,-100.00,SE,145,5.0,10.0,53,0.00,,,0.00,0.000000,,2013-01-27 03:32:00,
2013-01-26 21:42:00,21.0,7.0,-100.00,SE,145,5.0,10.0,53,0.00,,,0.00,0.000000,,2013-01-27 03:42:00,
2013-01-26 22:11:00,21.0,7.0,-100.00,SSE,158,7.0,13.0,54,0.00,,,0.00,0.000000,,2013-01-27 04:11:00,
2013-01-26 22:21:00,21.0,7.0,-100.00,SSE,158,7.0,13.0,54,0.00,,,0.00,0.000000,,2013-01-27 04:21:00,
2013-01-26 22:32:00,21.0,7.0,-100.00,SSE,158,7.0,13.0,54,0.00,,,0.00,0.000000,,2013-01-27 04:32:00,
2013-01-26 22:41:00,21.0,7.0,-100.00,SSE,158,7.0,13.0,54,0.00,,,0.00,0.000000,,2013-01-27 04:41:00,
2013-01-26 23:12:00,22.0,9.0,-100.00,SSE,151,6.0,15.0,57,0.00,,,0.00,0.000000,,2013-01-27 05:12:00,
2013-01-26 23:22:00,22.0,9.0,-100.00,SSE,151,6.0,15.0,57,0.00,,,0.00,0.000000,,2013-01-27 05:22:00,
2013-01-26 23:32:00,22.0,9.0,-100.00,SSE,151,6.0,15.0,57,0.00,,,0.00,0.000000,,2013-01-27 05:32:00,
2013-01-26 23:41:00,22.0,9.0,-100.00,SSE,151,6.0,15.0,57,0.00,,,0.00,0.000000,,2013-01-27 05:41:00,